Temperature
21 21 21 21 24 24 23 23 23 23 23 22 21 22 22 21 21 20 17 17 16 16 16 16 17 17 17 17 17 17 17 17 17 17 17 17 17 17 17 17 17 17 17 17 18 18 18 18 18
21 21 21 23 25 24 22 23 23 23 22 21 21 21 21 20 19 18 17 16 16 16 16 16 17 16 16 17 17 17 17 17 17 17 17 17 17 17 17 17 17 17 17 17 17 17 17 17 17
21 21 22 25 24 24 23 23 23 22 21 22 21 21 21 20 18 18 17 16 16 16 16 16 16 16 16 16 16 16 16 16 16 16 17 17 16 16 17 17 17 17 17 17 17 17 17 17 17
21 22 23 25 23 23 23 23 23 23 22 22 22 21 20 18 18 17 17 17 17 16 16 16 16 16 16 16 16 16 16 16 16 16 16 16 16 16 16 17 17 17 17 17 17 17 17 17 17
21 23 24 24 23 23 24 23 23 23 23 22 22 21 20 17 17 17 17 17 17 16 16 16 16 16 16 16 16 16 16 16 16 16 16 16 16 16 16 16 16 16 17 17 17 17 17 17 17
23 25 24 23 23 23 24 23 23 23 22 22 22 21 19 18 17 17 17 17 17 16 16 16 16 16 16 16 16 16 16 16 16 16 16 16 16 16 16 16 16 16 16 16 16 16 17 17 17
24 25 24 23 23 23 24 23 23 23 23 22 22 21 20 18 17 17 17 17 16 16 16 16 16 16 16 16 16 16 16 16 16 16 16 16 16 16 16 16 16 16 16 16 16 16 16 16 16
23 25 24 24 23 23 23 23 22 23 22 21 21 22 20 18 17 17 17 17 17 16 16 16 16 16 16 16 16 16 16 16 16 16 16 16 16 16 16 16 16 16 16 16 16 16 16 16 16
23 25 24 23 23 23 23 23 22 21 22 21 20 20 19 18 17 17 17 17 17 17 17 17 16 16 16 16 16 16 16 16 16 16 16 16 16 16 16 16 16 16 16 16 16 16 16 16 16
24 24 23 24 24 24 23 23 23 22 22 22 20 19 18 18 18 18 18 18 17 17 17 17 17 16 16 16 16 16 16 16 15 15 16 16 16 16 16 16 16 16 16 16 16 16 16 16 16
24 24 24 24 23 23 23 23 22 23 23 22 21 20 19 18 18 19 18 18 18 17 17 17 17 16 16 16 16 16 16 15 15 15 15 16 16 16 16 16 15 15 15 15 15 15 15 15 15
24 24 24 23 23 23 23 23 22 22 22 21 21 20 19 19 19 19 19 18 18 17 17 17 17 17 16 16 16 16 16 16 16 16 15 16 16 16 15 15 15 15 15 15 15 15 15 15 15
24 24 23 23 22 22 22 22 22 22 21 21 20 19 19 19 19 19 19 18 18 17 17 17 16 17 16 16 16 16 16 16 16 15 15 15 15 15 15 15 15 15 15 15 15 15 15 15 15
24 23 23 23 23 23 23 23 22 21 21 20 20 20 20 19 19 19 19 18 18 18 17 17 17 16 16 16 16 16 16 16 15 15 15 15 15 15 15 15 15 15 15 15 15 15 15 15 15
23 24 24 23 23 23 23 23 23 21 21 21 21 20 20 19 19 19 19 18 18 18 17 17 17 17 16 16 16 16 16 16 15 15 15 15 15 15 15 15 15 15 15 15 15 15 15 15 15
24 24 24 23 23 23 24 23 23 21 21 21 21 21 20 19 19 19 18 18 18 18 17 17 17 16 16 16 16 16 15 15 15 15 15 15 15 15 15 15 15 15 15 15 15 14 15 15 14
24 24 24 24 24 24 24 23 23 21 21 22 21 21 20 20 19 19 18 18 18 18 17 17 17 16 16 16 15 15 15 15 15 15 15 15 15 15 15 15 14 14 14 14 14 14 14 14 14
24 24 24 23 24 24 23 23 23 22 21 22 22 21 21 20 20 19 18 18 18 17 17 17 17 16 16 16 16 15 15 15 15 15 15 15 15 15 15 14 14 14 14 14 14 14 14 14 14
24 24 23 24 24 23 23 23 23 23 22 22 22 21 21 20 20 19 18 18 18 17 17 17 17 16 16 16 15 15 15 15 15 15 15 15 15 15 15 15 14 14 14 14 14 14 14 14 14
24 24 24 24 23 23 23 23 24 23 22 22 22 21 21 20 20 19 18 18 18 17 17 17 17 16 16 16 15 15 15 15 15 15 15 15 15 14 14 14 14 14 14 14 14 14 14 14 13
24 24 24 23 23 23 23 24 24 23 22 21 21 21 21 20 20 19 19 18 18 18 17 17 17 16 16 16 15 15 15 15 15 15 15 15 15 14 14 14 14 14 14 14 14 14 14 14 14
24 24 23 23 23 24 23 23 24 24 23 22 21 21 21 20 20 19 19 18 18 18 17 17 17 16 16 16 15 15 15 15 15 15 15 15 15 14 14 14 14 14 14 14 14 14 13 13 14
24 23 23 23 24 24 24 23 24 24 23 23 22 21 20 20 19 19 18 18 18 18 17 17 17 16 16 16 15 15 15 15 15 15 15 15 14 14 14 14 14 14 14 14 14 14 13 13 13
23 23 23 23 24 23 24 23 24 24 24 23 23 21 20 20 19 19 18 18 18 18 17 17 17 16 16 16 15 15 15 15 15 15 15 14 14 14 14 14 14 14 14 14 14 14 14 13 13
23 23 23 23 23 23 23 23 24 24 24 23 23 22 21 20 19 19 18 18 17 17 17 17 17 17 16 16 15 15 15 15 15 15 15 14 14 14 14 14 14 14 14 14 14 14 14 14 13
23 24 23 23 23 24 23 23 24 23 23 22 22 21 21 20 19 19 18 18 17 17 17 17 17 17 16 16 16 15 15 15 15 15 15 14 14 14 14 14 14 14 14 14 14 14 14 14 13
23 23 24 24 23 23 24 24 24 23 23 22 22 21 21 20 19 18 18 18 17 17 17 17 17 16 16 16 16 15 15 15 15 15 15 15 14 14 14 14 14 14 14 14 14 14 14 14 13
23 23 23 23 22 22 23 24 24 23 23 23 22 21 20 20 19 18 18 18 17 17 17 17 16 16 16 16 15 15 15 15 15 15 15 15 14 14 14 14 14 14 14 14 14 14 14 13 14
22 22 23 23 23 23 23 24 24 24 23 23 22 21 20 19 19 18 18 17 17 17 17 16 16 16 16 15 15 15 15 15 15 14 14 14 14 14 14 14 14 14 14 14 14 14 13 13 13
22 22 23 22 22 23 23 23 24 23 22 22 22 21 20 19 18 18 17 17 17 17 16 16 16 16 16 15 15 15 15 15 14 14 14 14 14 14 14 14 14 14 14 14 14 13 14 13 13
Wind_Speed
3 1 2 2 2 5 8 6 5 6 5 7 7 6 7 7 6 4 4 4 4 4 5 7 7 7 8 8 8 9 8 9 9 8 8 8 8 8 8 8 8 8 7 5 4 6 7 8 9
1 1 1 0 2 7 7 6 8 8 6 5 6 6 7 7 6 4 4 4 4 4 5 8 7 7 7 8 8 8 9 9 9 9 9 8 8 8 8 9 9 9 9 8 8 9 9 8 9
1 1 1 2 5 6 7 7 8 7 5 4 4 6 5 5 5 4 4 3 4 5 6 8 6 7 8 8 8 9 9 9 9 9 9 9 8 9 9 9 9 9 10 11 11 11 11 10 10
1 1 2 6 12 10 8 7 6 6 5 5 5 6 6 6 4 5 5 5 6 6 6 8 7 7 8 8 7 8 9 9 9 10 9 9 9 9 9 9 9 10 10 11 11 12 12 11 11
0 1 6 10 11 9 7 6 4 5 5 6 6 8 7 6 6 6 6 6 7 7 7 8 8 7 7 8 8 9 9 9 10 10 11 10 10 9 9 9 10 10 11 11 12 12 12 12 12
1 2 7 10 11 9 7 6 6 7 7 6 6 7 7 6 5 6 6 6 7 7 7 7 8 7 7 8 8 9 9 10 10 11 11 10 10 11 11 10 11 11 11 11 12 12 12 12 11
4 5 9 11 10 9 7 6 6 6 7 6 4 6 6 6 5 5 6 6 6 6 6 6 6 8 8 9 9 9 10 10 11 11 11 11 11 11 11 11 11 11 11 11 12 12 12 12 11
2 5 10 9 9 8 6 6 5 5 6 5 3 4 6 6 5 5 6 6 6 6 6 6 6 7 7 8 10 9 10 10 10 10 10 9 9 10 11 12 12 11 11 11 12 12 12 12 11
2 6 8 7 7 7 6 6 5 5 6 6 6 7 7 8 6 6 6 6 5 5 5 5 5 6 7 7 8 8 8 8 7 8 8 5 7 9 9 12 11 11 11 11 12 12 11 10 10
4 7 8 6 6 7 6 5 5 5 6 6 7 7 7 7 6 5 5 5 5 5 5 5 5 5 6 6 6 6 7 7 7 8 7 6 7 8 9 11 11 11 10 10 11 8 7 5 7
6 8 8 7 6 6 6 5 4 4 5 5 6 7 7 7 5 5 5 5 5 5 5 5 5 5 5 5 5 5 5 5 7 7 7 6 6 6 6 6 7 8 7 8 7 6 7 7 6
8 8 6 6 6 5 4 5 4 4 4 5 6 7 7 6 5 4 5 5 5 5 5 5 5 5 5 5 5 4 4 5 5 6 6 5 4 4 5 5 6 6 6 6 6 5 7 7 8
8 7 7 6 5 4 5 4 4 4 4 6 7 7 6 5 5 4 4 4 4 5 5 5 4 5 5 5 3 4 4 4 5 5 5 5 4 5 5 5 5 5 6 5 5 5 7 7 7
6 6 6 5 4 4 4 3 3 3 4 6 6 5 5 5 5 4 4 4 4 4 5 5 4 4 4 4 3 4 4 4 5 5 5 5 5 4 4 5 5 5 5 5 5 6 6 6 7
6 6 5 3 3 2 3 3 3 3 4 5 5 5 4 4 4 3 4 3 3 4 5 5 4 4 4 4 4 3 3 4 4 4 5 5 5 5 4 4 5 5 5 5 5 6 6 6 6
4 3 3 3 1 1 2 2 3 4 5 4 5 5 5 4 4 3 3 3 3 4 4 5 4 4 4 4 3 3 4 4 4 4 4 5 5 5 5 4 4 5 5 5 4 4 4 5 5
3 2 3 3 1 1 1 1 2 4 4 4 5 5 5 5 4 3 3 3 3 3 4 5 4 4 4 3 3 3 4 4 4 4 4 4 5 4 5 4 4 5 4 4 4 4 4 4 4
2 2 1 1 1 1 2 2 2 4 5 5 4 5 5 5 4 4 4 4 4 3 3 4 4 3 4 3 3 3 3 3 3 3 4 4 4 4 4 3 3 4 3 3 4 4 3 3 3
2 2 2 1 1 1 2 3 3 4 5 5 5 5 5 4 4 4 4 5 6 5 4 4 4 4 3 2 2 2 2 2 2 3 3 3 3 3 3 2 3 2 3 3 4 3 4 3 2
5 4 3 1 1 2 3 4 4 3 5 5 6 6 5 5 5 5 5 6 6 6 5 5 4 4 3 2 1 1 1 1 2 2 2 3 3 3 2 2 2 2 2 3 3 3 2 2 0
5 5 3 2 3 4 5 4 2 3 4 4 5 5 5 5 5 6 6 6 6 6 6 5 5 5 4 3 2 2 2 2 2 2 2 2 2 2 2 2 2 2 2 2 2 1 1 1 0
4 3 4 4 5 3 4 4 2 2 4 4 5 5 5 5 5 5 6 7 7 7 6 5 5 5 4 4 3 2 1 1 1 1 2 2 2 2 2 2 2 2 2 2 1 1 0 0 1
2 2 4 5 6 6 5 5 2 2 3 4 4 5 5 5 5 5 6 7 7 7 6 5 6 5 4 3 3 2 1 1 1 1 2 2 2 1 1 1 1 1 1 1 1 0 1 1 1
4 4 4 5 6 6 4 5 3 2 2 2 3 4 5 5 5 5 6 7 7 7 6 6 6 5 4 4 4 3 2 2 2 1 1 1 1 1 1 1 1 1 1 1 1 1 1 1 1
6 6 4 5 5 3 2 4 3 1 1 2 3 3 4 5 5 6 6 8 8 8 7 7 6 6 5 4 4 3 2 2 2 1 1 1 1 1 1 1 1 1 1 1 1 1 1 1 1
7 8 6 4 4 3 4 5 1 1 1 2 2 3 4 5 5 5 6 8 8 8 8 7 7 6 5 5 4 3 2 2 1 1 1 1 1 1 1 1 1 1 1 2 1 2 1 1 1
6 8 6 6 6 6 4 4 3 2 2 2 2 3 4 5 5 5 6 7 8 8 8 7 7 6 5 5 4 3 3 2 2 2 1 1 1 1 1 2 2 1 1 1 2 2 1 1 1
4 4 5 6 5 6 5 6 3 3 3 3 3 3 4 4 5 5 6 7 7 7 7 7 7 6 5 4 4 3 3 3 2 2 2 2 2 1 1 2 2 2 2 2 1 2 1 2 1
5 6 7 6 7 6 5 2 1 1 2 3 3 3 3 5 5 5 5 6 7 7 7 7 6 6 5 4 4 4 3 3 3 3 2 2 2 2 2 2 2 2 2 2 1 1 1 2 2
6 7 8 8 8 8 7 4 2 1 1 2 2 2 3 4 4 5 5 6 6 7 7 6 6 6 5 5 4 4 4 3 3 3 3 3 2 2 2 2 2 2 1 1 1 2 2 2 2
Wind_Direction
159 160 225 233 151 86 77 71 68 71 62 57 55 57 62 48 32 54 62 46 37 40 46 65 65 62 65 68 64 62 64 68 67 70 73 74 77 81 81 77 75 73 68 64 84 113 115 114 113
110 213 240 272 100 98 83 81 77 68 79 82 68 64 67 63 51 68 68 48 44 52 56 59 66 68 70 70 68 65 63 65 66 70 73 76 77 78 76 75 71 69 66 70 88 103 106 107 109
143 270 0 60 76 79 94 87 84 83 82 71 73 59 51 55 57 64 67 70 66 65 66 68 64 68 69 72 72 71 67 65 67 73 76 78 77 75 74 72 71 71 71 74 83 90 95 99 103
217 129 86 88 85 76 88 96 97 100 83 65 75 77 69 55 53 73 85 82 79 72 72 75 64 66 70 71 72 73 70 68 69 71 73 76 76 77 78 76 74 73 74 76 81 87 90 92 95
110 102 105 97 88 85 81 80 89 84 76 75 78 83 76 68 74 85 87 79 74 70 68 77 67 66 69 70 72 77 73 68 71 72 69 70 73 76 79 78 78 77 76 78 82 85 89 91 91
115 115 109 101 97 91 88 93 93 86 88 86 84 85 80 87 86 89 87 81 74 71 70 77 85 73 68 70 72 74 73 69 71 72 71 73 74 74 79 79 80 78 78 80 83 84 89 90 91
95 97 102 106 105 98 87 86 82 85 84 74 80 88 98 91 85 99 99 90 81 74 69 67 79 92 92 76 70 74 73 69 71 73 73 73 74 73 73 75 78 78 79 81 85 86 87 87 87
83 112 110 106 107 97 96 96 78 72 80 80 73 86 102 110 115 114 106 98 87 80 70 66 72 73 80 87 81 74 73 72 75 76 75 80 89 86 80 79 77 76 74 77 80 82 83 83 82
106 112 107 106 106 105 111 107 93 89 96 91 80 79 96 121 130 123 114 105 93 82 76 75 76 77 76 79 89 88 87 80 89 92 84 84 85 83 86 73 74 72 71 75 73 74 80 87 90
89 99 97 100 107 110 108 99 102 112 100 98 101 104 115 129 127 120 114 107 100 90 80 74 78 83 83 81 84 77 77 78 70 68 69 68 71 73 74 86 79 75 77 85 77 78 85 78 84
85 94 104 106 108 109 105 100 105 103 82 86 111 125 131 129 127 120 115 104 93 90 84 78 79 84 89 88 78 72 71 74 72 67 71 69 74 84 77 81 90 84 81 79 79 76 64 63 65
98 96 103 110 113 113 102 105 97 84 74 88 107 121 132 135 133 123 113 107 106 93 86 85 87 89 89 86 81 75 72 69 69 66 67 68 72 74 74 75 72 76 77 71 68 65 70 66 67
102 102 101 107 113 112 108 102 91 88 104 114 119 128 135 137 133 124 112 109 104 100 96 88 92 93 94 87 83 80 71 65 77 71 68 73 73 77 82 80 79 78 82 85 82 77 74 67 64
106 109 109 108 112 114 114 109 113 98 127 132 133 137 142 141 137 133 126 120 115 112 102 98 96 100 105 105 94 77 75 81 72 69 69 78 82 81 75 82 78 75 79 82 87 85 78 71 67
125 121 113 97 117 129 143 112 110 133 149 146 145 141 145 150 152 148 135 132 125 117 111 103 98 100 102 96 85 80 79 77 73 75 74 81 80 81 77 72 77 77 88 93 87 84 79 76 73
140 147 127 96 107 158 217 107 106 142 164 163 161 152 160 166 172 159 146 142 134 129 122 117 115 109 102 97 95 84 76 75 75 77 74 75 80 82 78 73 77 82 88 92 94 88 83 81 77
173 152 125 120 103 175 219 203 138 170 185 187 184 173 176 170 177 170 166 163 157 146 141 133 124 118 109 102 102 88 82 75 70 76 73 68 76 83 85 77 76 84 88 91 95 88 84 86 83
174 168 156 165 102 185 232 252 198 192 210 212 199 192 188 186 184 174 173 172 164 159 155 140 128 124 115 116 110 105 91 82 74 74 81 73 71 77 89 93 92 91 93 95 96 96 92 92 95
198 201 206 237 273 256 272 280 263 218 218 218 207 200 199 196 186 174 174 177 173 169 167 148 142 134 127 129 124 111 101 94 89 77 74 86 85 85 87 86 89 92 96 107 110 105 105 100 105
203 216 216 210 209 260 287 288 270 231 223 222 216 208 205 198 187 180 183 179 176 171 169 158 151 145 144 139 126 116 100 85 81 99 93 85 84 83 84 91 104 111 118 122 123 124 110 109 93
219 232 238 245 248 241 274 276 227 201 204 209 220 218 208 202 198 188 185 179 175 176 174 166 160 159 155 146 137 125 113 117 119 113 100 89 91 84 77 92 103 115 130 128 146 161 161 117 76
234 236 235 241 255 271 274 286 256 203 200 200 205 211 210 201 201 195 187 182 182 181 178 172 163 162 155 155 159 148 138 117 97 98 109 110 100 90 76 90 99 111 111 131 154 146 259 281 42
245 197 222 248 267 271 252 262 255 191 222 218 205 205 207 202 197 196 192 186 181 174 175 176 165 160 159 168 167 177 141 124 127 131 124 130 118 112 115 114 118 123 131 136 134 130 269 279 306
167 184 202 230 252 257 254 252 262 197 238 234 206 202 201 198 195 191 184 179 174 168 169 169 168 165 164 178 185 190 167 162 152 160 146 147 139 145 146 162 165 152 150 162 184 211 232 271 303
207 228 236 228 225 244 193 247 256 56 306 266 231 198 185 187 188 186 181 178 175 173 173 171 172 172 175 186 195 192 194 196 188 188 177 187 167 172 174 189 209 195 182 190 215 231 253 250 261
224 236 249 266 263 263 218 242 215 78 283 257 219 190 176 177 183 184 182 180 178 177 177 178 178 179 181 192 199 201 196 210 202 204 211 215 211 189 199 200 207 204 207 213 220 253 252 263 259
221 231 258 273 276 271 237 230 215 182 189 171 174 174 176 180 183 183 180 179 177 176 177 179 179 180 185 195 204 212 215 213 208 209 210 208 211 209 206 198 202 193 219 238 232 249 243 253 278
252 222 222 236 255 256 247 241 227 190 201 192 187 186 181 179 180 180 178 177 175 173 175 177 178 177 182 192 204 217 223 219 230 232 220 219 215 212 211 210 209 195 209 220 235 254 256 246 250
198 208 227 240 251 261 264 241 85 248 219 214 204 191 186 179 178 176 174 172 170 168 171 175 179 178 180 190 201 208 208 220 220 222 227 234 221 205 208 215 223 224 217 211 200 236 229 245 237
236 232 230 243 246 250 267 262 109 282 250 229 217 189 174 176 175 172 167 165 167 170 173 177 180 182 186 191 200 206 201 214 223 222 229 230 229 228 226 216 222 229 237 236 230 232 244 246 250
Height
1513 1513 1513 1515 1514 1515 1523 1525 1523 1524 1525 1528 1528 1527 1527 1529 1531 1538 1538 1535 1534 1534 1533 1532 1530 1530 1530 1529 1529 1529 1528 1528 1528 1527 1527 1527 1527 1527 1527 1526 1525 1524 1523 1520 1518 1520 1523 1525 1526
1514 1514 1516 1516 1513 1522 1529 1526 1525 1526 1529 1530 1530 1530 1530 1533 1535 1537 1537 1536 1535 1535 1534 1533 1531 1531 1531 1531 1530 1530 1529 1529 1529 1528 1528 1528 1528 1528 1528 1527 1526 1525 1523 1519 1516 1520 1523 1525 1527
1515 1515 1518 1515 1517 1523 1529 1527 1527 1529 1531 1530 1531 1532 1533 1536 1538 1538 1538 1536 1536 1536 1535 1534 1533 1532 1532 1531 1531 1531 1530 1530 1530 1530 1529 1529 1529 1529 1529 1528 1527 1526 1525 1522 1521 1523 1525 1526 1527
1517 1519 1519 1518 1524 1525 1525 1527 1528 1530 1531 1532 1532 1533 1536 1539 1539 1539 1538 1538 1537 1537 1536 1535 1534 1534 1533 1532 1532 1532 1532 1532 1531 1531 1531 1531 1530 1530 1530 1530 1529 1528 1528 1527 1526 1527 1527 1528 1529
1518 1519 1518 1523 1527 1527 1527 1529 1529 1529 1531 1533 1533 1535 1538 1541 1540 1540 1539 1539 1539 1538 1538 1537 1535 1535 1534 1534 1533 1533 1533 1533 1533 1533 1532 1532 1532 1532 1531 1531 1531 1530 1530 1529 1529 1529 1530 1530 1531
1520 1518 1521 1527 1529 1529 1529 1530 1531 1531 1533 1534 1535 1536 1540 1542 1541 1541 1541 1540 1540 1539 1539 1538 1537 1536 1536 1536 1535 1535 1535 1535 1535 1534 1534 1534 1534 1533 1533 1533 1533 1532 1532 1532 1532 1532 1532 1532 1533
1521 1519 1523 1527 1530 1530 1531 1532 1532 1532 1534 1536 1536 1537 1541 1542 1542 1542 1542 1541 1541 1541 1541 1540 1540 1539 1537 1537 1537 1537 1537 1537 1536 1536 1536 1535 1535 1535 1535 1535 1534 1534 1534 1534 1534 1534 1534 1534 1535
1521 1521 1525 1528 1531 1532 1533 1534 1535 1535 1536 1538 1538 1538 1541 1543 1543 1543 1543 1543 1543 1542 1542 1542 1541 1541 1541 1540 1539 1539 1539 1538 1538 1538 1537 1537 1537 1537 1537 1537 1536 1536 1536 1536 1536 1536 1536 1536 1536
1522 1523 1528 1530 1531 1533 1534 1534 1536 1537 1537 1539 1539 1541 1542 1543 1544 1544 1544 1544 1544 1544 1543 1543 1543 1543 1542 1542 1541 1541 1541 1540 1540 1540 1539 1539 1540 1539 1539 1538 1538 1538 1538 1538 1537 1537 1537 1537 1538
1524 1525 1530 1530 1531 1532 1534 1535 1537 1537 1537 1539 1541 1542 1543 1544 1545 1545 1545 1545 1545 1545 1545 1545 1544 1544 1544 1543 1543 1543 1543 1543 1542 1542 1541 1541 1541 1541 1541 1540 1540 1540 1539 1539 1539 1539 1539 1539 1540
1526 1528 1530 1532 1533 1534 1535 1537 1538 1537 1538 1540 1541 1543 1544 1545 1545 1546 1546 1546 1547 1547 1546 1546 1546 1545 1545 1545 1545 1545 1545 1544 1544 1544 1543 1543 1543 1543 1542 1542 1542 1541 1541 1541 1541 1541 1541 1541 1541
1529 1531 1532 1534 1536 1536 1536 1538 1539 1539 1541 1542 1543 1544 1545 1545 1546 1546 1547 1547 1547 1548 1547 1547 1547 1547 1547 1547 1547 1546 1546 1546 1546 1545 1545 1545 1544 1544 1544 1544 1543 1543 1543 1543 1543 1543 1543 1543 1542
1531 1533 1535 1536 1537 1538 1538 1539 1540 1541 1543 1543 1544 1545 1545 1546 1546 1547 1547 1548 1548 1548 1549 1548 1548 1548 1548 1548 1548 1548 1548 1548 1547 1546 1546 1546 1546 1545 1545 1545 1544 1544 1544 1544 1544 1545 1544 1544 1544
1534 1534 1536 1537 1537 1538 1538 1539 1540 1542 1543 1544 1545 1545 1546 1546 1547 1548 1548 1548 1549 1549 1550 1549 1549 1549 1549 1549 1549 1549 1549 1548 1549 1548 1548 1547 1547 1547 1546 1546 1546 1546 1545 1545 1546 1546 1545 1545 1544
1535 1534 1536 1537 1537 1538 1538 1539 1540 1542 1543 1544 1544 1545 1546 1547 1547 1548 1549 1549 1549 1550 1550 1550 1550 1550 1550 1550 1550 1550 1550 1550 1550 1549 1549 1549 1548 1548 1547 1547 1547 1546 1546 1546 1546 1546 1546 1545 1545
1533 1533 1537 1537 1537 1538 1539 1541 1540 1542 1543 1543 1543 1544 1546 1547 1548 1548 1549 1549 1550 1550 1550 1550 1550 1551 1551 1551 1551 1551 1551 1551 1550 1550 1550 1550 1549 1549 1548 1548 1548 1547 1547 1547 1547 1547 1547 1546 1546
1533 1536 1537 1537 1537 1537 1536 1538 1540 1541 1542 1542 1542 1543 1545 1546 1547 1548 1548 1549 1550 1550 1551 1551 1551 1551 1551 1551 1551 1551 1551 1551 1551 1551 1551 1550 1550 1550 1549 1549 1549 1549 1548 1548 1548 1548 1548 1547 1547
1537 1535 1537 1537 1536 1536 1536 1536 1537 1540 1540 1540 1541 1542 1543 1545 1546 1547 1548 1548 1549 1550 1551 1551 1551 1551 1551 1551 1552 1551 1552 1552 1551 1551 1551 1550 1550 1550 1550 1550 1550 1550 1549 1549 1549 1549 1548 1548 1548
1532 1535 1537 1536 1535 1536 1535 1535 1534 1537 1538 1538 1539 1541 1542 1543 1545 1546 1546 1547 1548 1549 1550 1551 1551 1551 1551 1552 1552 1552 1552 1552 1552 1551 1551 1551 1551 1551 1551 1551 1551 1550 1550 1550 1550 1549 1549 1549 1549
1534 1536 1536 1535 1535 1535 1534 1533 1531 1534 1535 1536 1537 1539 1540 1542 1543 1544 1545 1546 1548 1549 1550 1551 1551 1552 1552 1552 1553 1553 1552 1552 1552 1552 1551 1551 1551 1551 1552 1551 1551 1551 1550 1550 1550 1550 1550 1550 1549
1533 1534 1534 1536 1535 1534 1534 1532 1530 1531 1533 1535 1536 1537 1538 1540 1541 1542 1543 1545 1546 1548 1549 1550 1551 1552 1552 1552 1552 1552 1553 1553 1553 1552 1552 1552 1552 1552 1552 1552 1552 1551 1551 1551 1551 1551 1550 1550 1550
1534 1532 1533 1535 1535 1535 1535 1537 1527 1526 1529 1532 1534 1535 1536 1538 1539 1540 1542 1543 1545 1547 1549 1550 1551 1552 1552 1552 1552 1553 1553 1553 1553 1553 1553 1553 1552 1552 1552 1552 1552 1552 1552 1551 1551 1551 1550 1550 1550
1531 1532 1533 1533 1533 1533 1532 1534 1526 1525 1527 1527 1530 1532 1534 1535 1537 1538 1540 1541 1543 1545 1547 1549 1550 1551 1551 1552 1552 1553 1553 1553 1553 1553 1553 1553 1553 1553 1553 1552 1552 1552 1552 1551 1551 1551 1550 1550 1550
1532 1533 1533 1532 1532 1539 1531 1533 1530 1522 1524 1525 1527 1530 1532 1533 1535 1536 1538 1540 1542 1544 1546 1547 1549 1550 1551 1551 1552 1553 1553 1553 1553 1553 1553 1553 1553 1553 1553 1552 1552 1552 1552 1551 1551 1551 1550 1550 1550
1531 1534 1539 1539 1539 1535 1529 1532 1527 1521 1523 1524 1526 1528 1530 1532 1533 1535 1536 1538 1540 1542 1544 1546 1547 1549 1550 1551 1552 1552 1553 1553 1553 1553 1553 1553 1553 1553 1553 1552 1552 1552 1552 1551 1551 1550 1550 1550 1549
1528 1529 1539 1544 1539 1531 1529 1529 1521 1521 1523 1524 1525 1527 1529 1530 1532 1533 1535 1536 1538 1540 1542 1544 1546 1548 1549 1550 1551 1552 1552 1552 1553 1552 1552 1552 1552 1552 1552 1552 1552 1551 1551 1551 1550 1550 1550 1550 1549
1528 1528 1525 1530 1531 1534 1525 1521 1518 1520 1521 1523 1524 1526 1527 1529 1531 1532 1533 1535 1537 1539 1541 1543 1544 1546 1547 1549 1550 1551 1551 1551 1551 1551 1552 1552 1552 1551 1551 1551 1551 1550 1550 1550 1550 1549 1549 1549 1549
1527 1525 1529 1532 1538 1537 1529 1523 1519 1518 1519 1521 1523 1524 1526 1528 1529 1531 1532 1534 1536 1537 1539 1541 1543 1544 1546 1547 1548 1549 1550 1550 1550 1551 1550 1550 1550 1550 1550 1550 1550 1550 1549 1549 1548 1548 1548 1548 1548
1529 1529 1527 1526 1527 1533 1533 1524 1513 1515 1517 1519 1521 1523 1525 1527 1528 1530 1531 1533 1534 1536 1538 1540 1542 1543 1544 1545 1547 1547 1548 1548 1549 1549 1549 1549 1549 1549 1549 1549 1549 1549 1548 1548 1547 1547 1547 1547 1547
1524 1524 1525 1531 1528 1525 1527 1524 1513 1516 1517 1519 1521 1523 1524 1526 1527 1529 1530 1531 1533 1535 1537 1538 1540 1542 1543 1544 1545 1546 1546 1547 1548 1548 1548 1548 1548 1548 1548 1547 1547 1547 1547 1547 1546 1546 1545 1545 1545